Regional Weather Roundup
Issued by NWS Kansas City/Pleasant Hill, MO

Home | Current Version | Previous Version | Graphics & Text | Print | Product List | Glossary Off
Versions: 1 2 3 4 5 6 7 8 9 10 11 12 13 14 15 16 17 18 19 20 21 22 23 24 25 26 27 28 29 30 31 32 33 34 35 36 37 38 39 40 41 42 43 44 45 46 47 48 49 50

000
ASUS43 KEAX 250010
RWREAX

WEATHER ROUNDUP FOR EASTERN KANSAS AND NORTHWEST MISSOURI
NATIONAL WEATHER SERVICE KANSAS CITY/PLEASANT HILL MO
700 PM CDT FRI OCT 24 2014

KSZ040-057-103>105-MOZ028-029-037-043-250100-
...KANSAS CITY METROPOLITAN AREA...

CITY           SKY/WX    TMP DP  RH WIND       PRES   REMARKS
K.C. INTL      MOCLDY    70  62  76 S12       29.93S
6HR MIN TEMP:  69; 6HR MAX TEMP:  76;

K.C. DOWNTOWN  MOCLDY    73  62  68 SW9       29.93S
6HR MIN TEMP:  73; 6HR MAX TEMP:  77;

LEES SUMMIT    MOCLDY    72  61  68 SW9       29.95S
6HR MIN TEMP:  70; 6HR MAX TEMP:  76;

OLATHE - IXD   MOCLDY    69  62  78 S12       29.96S
6HR MIN TEMP:  69; 6HR MAX TEMP:  76;

OLATHE - OJC   MOCLDY    71  62  73 SW12      29.95S
6HR MIN TEMP:  71; 6HR MAX TEMP:  76;

LAWRENCE       MOCLDY    70  61  73 S7        29.94S

$$

MOZ001>008-011>017-020>025-030>033-038>040-044>046-053-054-250100-
...NORTHERN AND CENTRAL MISSOURI...

CITY           SKY/WX    TMP DP  RH WIND       PRES   REMARKS
ST. JOSEPH     MOCLDY    70  63  78 S5        29.92R
6HR MIN TEMP:  69; 6HR MAX TEMP:  78;

MOSBY          MOCLDY    72  61  68 SE3       29.93R
WHITEMAN AFB   PTCLDY    67  61  80 SW10      29.96S
6HR MIN TEMP:  67; 6HR MAX TEMP:  75;

CLINTON        PTCLDY    70  63  78 S6        29.98F
SEDALIA        MOCLDY    70  61  73 S7        29.98F
6HR MIN TEMP:  70; 6HR MAX TEMP:  75;

WARSAW         NOT AVBL
MARSHALL       CLOUDY    72  63  73 S6        29.96S
CHILLICOTHE      N/A     67  62  84 CALM      29.94R
6HR MIN TEMP:  64; 6HR MAX TEMP:  75;

MOBERLY        MOCLDY    70  57  64 S6        29.96S
KIRKSVILLE     MOCLDY    65  60  84 S7        29.94R
6HR MIN TEMP:  62; 6HR MAX TEMP:  72;


$$

MOZ041-047>049-056>058-063>065-088>090-097-250100-
...EASTERN AND SOUTHERN MISSOURI...

CITY           SKY/WX    TMP DP  RH WIND       PRES   REMARKS
ST. LOUIS INTL MOCLDY    70  49  47 S5        30.00S
6HR MIN TEMP:  70; 6HR MAX TEMP:  75;

SPIRIT OF STL  PTCLDY    60  52  74 S3        29.99S
COLUMBIA       MOCLDY    68  59  73 S8        29.99S
JEFFERSON CITY MOCLDY    69  59  70 E6        29.98S
MEXICO         MOCLDY    66  63  88 S7        29.97F
HANNIBAL       MOCLDY    66  55  68 S9        29.96S
ROLLA          MOCLDY    64  58  80 S8        30.01S
LEBANON        MOCLDY    66  59  77 S6        30.04F
OSAGE BEACH    MOCLDY    70  57  64 S7        30.01S
SPRINGFIELD    PTCLDY    64  59  83 S7        30.04F
BRANSON        CLEAR     64  59  82 SW5       30.08S
NEVADA         PTCLDY    66  61  82 S8        30.01S
JOPLIN         PTCLDY    66  60  81 S8        30.04S
WEST PLAINS    PTCLDY    65  56  72 S5        30.07F

$$

IAZ060-094-KSZ022-034>040-054-083-096-NEZ052-066-093-250100-
...KANSAS...SOUTHEAST NEBRASKA AND IOWA...

CITY           SKY/WX    TMP DP  RH WIND       PRES   REMARKS
TOPEKA         CLEAR     74  63  68 S3        29.93S
6HR MIN TEMP:  72; 6HR MAX TEMP:  80;

MANHATTAN      CLEAR     72  63  73 SW7       29.93R
EMPORIA        CLEAR     71  61  70 S12       29.97R
CHANUTE        PTCLDY    68  62  81 S9        30.00F
WICHITA        PTCLDY    74  60  61 SW7       29.99S
OMAHA          MOCLDY    69  56  62 CALM      29.93R
LINCOLN        PTCLDY    63  54  72 N5        29.95R
FALLS CITY     PTCLDY    73  61  65 W6        29.91R
LAMONI         PTCLDY    66  61  84 S3        29.93R
DES MOINES     MOCLDY    62  59  90 S5        29.92R

$$




USA.gov is the U.S. government's official web portal to all federal, state and local government web resources and services.